Location: Fort Worth, Tx
(32.7431°N, 97.3695°W)
Time: 20:59:01
(UTC-04:00)

Max Valier Satellite - Pass Details

Date: 05 April 2023
Orbit: 444 x 458 km, 97.2° (Epoch: 04 June)

Event Time Altitude Azimuth Distance (km) Brightness Sun altitude
Exits shadow 21:10:46 - 126° (SE) 2,116 ? -4.6°
Reaches altitude 10° 21:12:33 10° 107° (ESE) 1,567 ? -5.0°
Drops below altitude 10° 21:16:32 10° 35° (NE) 1,580 ? -5.8°
Enters shadow 22:20:41 -50° 173° (S) 10,354 ? -18.8°
Maximum altitude 22:47:16 20° 264° (W) 1,097 ? -23.9°
